SAME Airport Information

Runway Information
Runway 18 Length 9301 ft width 177 ft
Elevation 2290 ft Threshold 0 ft Heading 181
Runway 36 Length 9301 ft Width 177 ft
Elevation 2310 ft Threshold 0 ft Heading 1
Airport Frequencies
Type ATIS Name ATIS Frequency 114.9 MHZ
Type GND Name GND Frequency 121.95 MHZ
Type TCA Name MENDOZA CO Frequency 124.2 MHZ
Type TWR Name MENDOZA AP Frequency 119.9 MHZ
Airport Navaids
Type VOR-DME Name Mendoza Frequency 114900 KHZ
Airport Weather Information & NOTAM
ADDS - METARS form results

(1453 UTC 22 July 2018)
 
METAR text: SAME 221400Z 18006KT CAVOK 09/04 Q1023
Conditions at: SAME (MENDOZA/EL PLUME, AR) observed 1400 UTC 22 July 2018
Temperature: 9.0°C (48°F)
Dewpoint: 4.0°C (39°F) [RH = 71%]
Pressure (altimeter): 30.21 inches Hg (1023.0 mb)
Winds: from the S (180 degrees) at 7 MPH (6 knots; 3.1 m/s)
Visibility: 6 or more miles (10+ km)
Ceiling: ceiling and visibility are OK
Clouds: unknown
Weather: no significant weather observed at this time